Find Starlink 35167

NORAD ID: 65736 Int'l Des: 2025-216 Owner: SPXS Country: US Constellation: starlink operational
LEOCIRCULAR

現在のビュー

3D地球を読み込み中...

About Starlink 35167

Starlink 35167 (NORAD 65736) is a starlink constellation satellite (v2 mini) launched Sep 25, 2025 by SPXS of US. It operates in LEO, CIRCULAR orbit with a mass of 575.00 kg.

次回通過

Passes for default location (London). Set your location on the main map for personalized predictions.

高度履歴

Loading altitude history...

軌道要素

1 65736U 25216C 26264.94966180 .00007267 00000-0 22601-3 0 9992
2 65736 53.1580 139.0348 0001282 97.7544 262.3604 15.34396556 56627
Epoch: Sep 21, 2026 • Age: 18 hours

現在のステータス

高度 481.4 km
遠地点 / 近地点 N/A
速度 7.62 km/s
衛星直下点 -51.44°S, 166.47°E
打ち上げ日 Sep 25, 2025
運用期間 0.9 years
タイプ internet

技術仕様

分類 Payload
質量 575.00 kg
乾燥質量 530.00 kg
長さ 0.30 m
スパン 29.00 m
形状 ? Box + pan
製造者 SPXS
バスタイプ Starlink V2MO
フェーズステータス In Orbit
所有者/国 SPXS/US

Most Searched